EW1175 Weather Reports


time (UTC)temp
C
wind
direction
speed
KPH
gust
KPH
rain 1hr
cm
rain 24hr
cm
rain mn
cm
humidity
%
barometer
mb
20260503181529 22 118 0.0 3.2 0.00 0.00 0.00 45 1016.3
20260503180027 22 131 0.0 0.0 0.00 0.00 0.00 44 1016.4
20260503174521 22 127 0.0 0.0 0.00 0.00 0.00 45 1016.5
20260503173022 22 140 0.0 0.0 0.00 0.00 0.00 40 1016.6
20260503171519 23 120 0.0 0.0 0.00 0.00 0.00 44 1016.7
20260503081532 13 155 0.0 0.0 0.00 0.00 0.00 71 1016.9
20260503071511 14 155 0.0 0.0 0.00 0.00 0.00 66 1016.7
20260503054502 16 111 0.0 0.0 0.00 0.00 0.00 59 1016.2
20260503053002 16 129 0.0 1.6 0.00 0.00 0.00 68 1016.3
20260503051559 16 129 0.0 0.0 0.00 0.00 0.00 66 1016.3
20260503050058 17 130 0.0 0.0 0.00 0.00 0.00 60 1016.2
20260503044557 17 129 0.0 1.6 0.00 0.00 0.00 62 1016.1
20260503043059 17 130 0.0 0.0 0.00 0.00 0.00 59 1016.1
20260503041556 18 129 0.0 0.0 0.00 0.00 0.00 58 1016.0
20260503040056 18 130 0.0 0.0 0.00 0.00 0.00 55 1015.8
20260503034555 20 130 0.0 0.0 0.00 0.00 0.00 52 1015.6
20260503033154 20 129 0.0 1.6 0.00 0.00 0.00 50 1015.4
20260503031554 21 130 0.0 0.0 0.00 0.00 0.00 47 1015.4
20260503030053 21 129 0.0 1.6 0.00 0.00 0.00 45 1015.3
20260503024552 21 129 0.0 0.0 0.00 0.00 0.00 45 1015.2
20260503023055 22 131 0.0 0.0 0.00 0.00 0.00 44 1015.3
20260503021552 22 131 0.0 8.0 0.00 0.00 0.00 42 1015.4
20260503020049 22 121 0.0 3.2 0.00 0.00 0.00 42 1015.4
20260503014558 22 113 0.0 1.6 0.00 0.00 0.00 42 1015.6
20260503013049 23 103 0.0 4.8 0.00 0.00 0.00 42 1015.7
20260503011545 23 113 0.0 3.2 0.00 0.00 0.00 40 1015.8
20260503010049 23 110 0.0 8.0 0.00 0.00 0.00 40 1015.8
20260503004546 23 117 0.0 3.2 0.00 0.00 0.00 42 1015.9
20260503003046 23 105 0.0 8.0 0.00 0.00 0.00 42 1016.0
20260503001546 23 120 0.0 6.4 0.00 0.00 0.00 41 1016.1
20260503000042 23 113 0.0 3.2 0.00 0.00 0.00 40 1016.2
20260502234548 23 127 0.0 4.8 0.00 0.00 0.00 40 1016.4
20260502233040 23 98 0.0 4.8 0.00 0.00 0.00 41 1016.5
20260502231533 23 120 0.0 11.3 0.00 0.00 0.00 40 1016.7
20260502230034 23 101 0.0 4.8 0.00 0.00 0.00 40 1016.7
20260502224528 23 122 0.0 3.2 0.00 0.00 0.00 42 1017.0
20260502223037 24 118 0.0 4.8 0.00 0.00 0.00 42 1017.3
20260502221524 24 128 0.0 8.0 0.00 0.00 0.00 41 1017.4
20260502220024 24 98 0.0 3.2 0.00 0.00 0.00 40 1017.5
20260502214519 24 92 0.0 9.7 0.00 0.00 0.00 43 1017.7
20260502213018 24 117 0.0 3.2 0.00 0.00 0.00 44 1017.9
20260502211516 23 119 1.6 4.8 0.00 0.00 0.00 44 1017.9
20260502210014 24 122 0.0 1.6 0.00 0.00 0.00 47 1018.1
20260502204513 24 108 0.0 3.2 0.00 0.00 0.00 48 1018.2
20260502203010 23 113 0.0 3.2 0.00 0.00 0.00 49 1018.4
20260502201510 23 133 0.0 3.2 0.00 0.00 0.00 50 1018.5
20260502200004 22 142 0.0 4.8 0.00 0.00 0.00 54 1018.8
20260502194507 22 108 0.0 4.8 0.00 0.00 0.00 53 1018.9
20260502193100 21 103 0.0 3.2 0.00 0.00 0.00 57 1019.0
20260502191607 21 136 0.0 3.2 0.00 0.00 0.00 58 1019.2
20260502190058 20 143 0.0 3.2 0.00 0.00 0.00 60 1019.3
20260502184602 20 124 0.0 4.8 0.00 0.00 0.00 59 1019.2
20260502183056 21 141 0.0 4.8 0.00 0.00 0.00 59 1019.4